EW8956 Weather Reports


time (UTC)temp
C
wind
direction
speed
KPH
gust
KPH
rain 1hr
cm
rain 24hr
cm
rain mn
cm
humidity
%
barometer
mb
20260506134554 18 217 3.2 14.5 0.00 0.00 0.00 68 1014.1
20260506133102 18 215 1.6 12.9 0.00 0.00 0.00 68 1014.4
20260506131544 17 215 3.2 17.7 0.00 0.00 0.00 69 1013.9
20260506130044 17 232 3.2 24.1 0.00 0.00 0.00 70 1014.2
20260506124554 17 241 3.2 17.7 0.00 0.00 0.00 70 1014.4
20260506123053 17 226 6.4 24.1 0.00 0.00 0.00 70 1014.6
20260506121553 17 200 4.8 25.7 0.00 0.00 0.00 71 1014.6
20260506120057 16 227 3.2 24.1 0.00 0.00 0.00 72 1014.5
20260506114558 16 0 3.2 16.1 0.00 0.00 0.00 72 1014.5
20260506113051 16 198 1.6 14.5 0.00 0.00 0.00 72 1014.1
20260506111546 16 0 1.6 14.5 0.00 0.00 0.00 73 1014.2
20260506110054 16 215 1.6 17.7 0.00 0.00 0.00 73 1013.9
20260506104610 16 250 1.6 9.7 0.00 0.00 0.00 72 1013.6
20260506103053 16 196 3.2 14.5 0.00 0.00 0.00 71 1013.6
20260506101549 16 0 3.2 12.9 0.00 0.00 0.00 71 1013.7
20260506100046 16 0 4.8 16.1 0.00 0.00 0.00 71 1013.5
20260506094549 16 0 1.6 9.7 0.00 0.00 0.00 70 1013.6
20260506093050 17 0 1.6 14.5 0.00 0.00 0.00 70 1013.7
20260506091550 17 234 1.6 20.9 0.00 0.00 0.00 69 1014.0
20260506090048 17 234 1.6 11.3 0.00 0.00 0.00 69 1014.1
20260506084544 17 212 3.2 12.9 0.00 0.00 0.00 69 1014.1
20260506083047 17 241 1.6 19.3 0.00 0.00 0.00 68 1013.9
20260506081557 17 205 4.8 19.3 0.00 0.00 0.00 68 1014.1
20260506073048 17 244 4.8 19.3 0.00 0.00 0.00 68 1013.9
20260506071606 17 0 3.2 22.5 0.00 0.00 0.00 69 1013.9
20260506061546 17 257 1.6 8.0 0.00 0.00 0.00 66 1014.6
20260506044605 18 105 3.2 14.5 0.00 0.00 0.00 59 1014.9
20260506043052 18 173 3.2 14.5 0.00 0.00 0.00 57 1014.9
20260506041553 18 0 1.6 17.7 0.00 0.00 0.00 55 1014.9
20260506040053 19 94 1.6 9.7 0.00 0.00 0.00 53 1014.7
20260506034547 19 199 4.8 19.3 0.00 0.00 0.00 51 1014.5
20260506033048 20 153 4.8 19.3 0.00 0.00 0.00 50 1014.7
20260506031555 20 157 1.6 16.1 0.00 0.00 0.00 49 1014.4
20260506030110 20 157 0.0 6.4 0.00 0.00 0.00 48 1014.6
20260506024549 20 0 0.0 11.3 0.00 0.00 0.00 48 1014.7
20260506023046 21 0 0.0 8.0 0.00 0.00 0.00 47 1014.9
20260506021556 21 67 0.0 11.3 0.00 0.00 0.00 46 1014.9
20260506020050 21 246 1.6 9.7 0.00 0.00 0.00 46 1014.9
20260506014550 21 163 1.6 11.3 0.00 0.00 0.00 45 1014.7
20260506013050 21 0 0.0 8.0 0.00 0.00 0.00 45 1014.6
20260506011555 22 246 0.0 4.8 0.00 0.00 0.00 44 1014.5
20260506010056 22 0 0.0 9.7 0.00 0.00 0.00 43 1014.3
20260506004551 22 186 1.6 8.0 0.00 0.00 0.00 43 1014.2
20260506003050 22 244 1.6 8.0 0.00 0.00 0.00 41 1014.0
20260506001547 23 166 1.6 11.3 0.00 0.00 0.00 40 1014.1
20260506000053 23 205 0.0 14.5 0.00 0.00 0.00 39 1014.1
20260505234607 23 221 1.6 27.4 0.00 0.00 0.00 38 1013.8
20260505233051 24 221 6.4 22.5 0.00 0.00 0.00 36 1013.7
20260505231552 24 215 3.2 24.1 0.00 0.00 0.00 36 1013.6
20260505230051 25 0 3.2 19.3 0.00 0.00 0.00 35 1013.5
20260505224549 25 200 4.8 19.3 0.00 0.00 0.00 35 1013.6
20260505223055 25 213 0.0 22.5 0.00 0.00 0.00 34 1013.7
20260505221548 25 243 6.4 25.7 0.00 0.00 0.00 34 1013.8
20260505220050 25 170 6.4 22.5 0.00 0.00 0.00 35 1013.8
20260505214554 25 217 6.4 30.6 0.00 0.00 0.00 34 1014.0
20260505213043 26 232 4.8 16.1 0.00 0.00 0.00 33 1013.9
20260505211601 26 0 6.4 30.6 0.00 0.00 0.00 32 1014.1
20260505210048 26 279 1.6 20.9 0.00 0.00 0.00 32 1014.1
20260505204549 26 228 8.0 29.0 0.00 0.00 0.00 32 1014.1
20260505203110 26 171 4.8 17.7 0.00 0.00 0.00 32 1014.5
20260505201543 26 167 8.0 29.0 0.00 0.00 0.00 32 1014.4
20260505200040 26 105 4.8 22.5 0.00 0.00 0.00 30 1014.5
20260505194549 26 177 4.8 20.9 0.00 0.00 0.00 32 1014.8
20260505193049 26 134 6.4 22.5 0.00 0.00 0.00 35 1015.0
20260505191550 26 169 8.0 20.9 0.00 0.00 0.00 34 1015.1
20260505190043 26 261 3.2 17.7 0.00 0.00 0.00 34 1015.3
20260505184550 25 151 4.8 24.1 0.00 0.00 0.00 36 1015.7
20260505183050 25 209 8.0 38.6 0.00 0.00 0.00 35 1015.8
20260505181551 25 146 4.8 24.1 0.00 0.00 0.00 35 1016.0
20260505180056 25 216 6.4 16.1 0.00 0.00 0.00 35 1016.3
20260505174551 24 246 4.8 27.4 0.00 0.00 0.00 38 1016.2
20260505173057 24 225 8.0 20.9 0.00 0.00 0.00 37 1016.3
20260505171559 25 97 3.2 19.3 0.00 0.00 0.00 38 1016.3
20260505170055 25 190 3.2 14.5 0.00 0.00 0.00 37 1016.6
20260505164551 24 186 4.8 27.4 0.00 0.00 0.00 37 1016.7
20260505163051 25 167 1.6 17.7 0.00 0.00 0.00 38 1016.8
20260505161553 24 86 4.8 14.5 0.00 0.00 0.00 37 1016.8
20260505153053 23 208 3.2 16.1 0.00 0.00 0.00 43 1017.2
20260505151551 22 211 3.2 12.9 0.00 0.00 0.00 46 1017.3